This is the latest recevied weather packets stored in our database for station/object KB3HLL. If no packets are shown the sender has not sent any weather packets the latest 1 day(s).
| Time | Temp. | Humidity | Pressure | Rain* | Wind** | Luminosity | Snow |
|---|---|---|---|---|---|---|---|
| 1778010980 | 22.78° C | 49% | 1010 hPa | 0 mm | - | 172 W/m² | - |
| 1778010378 | 22.78° C | 48% | 1009.9 hPa | 0 mm | - | 93 W/m² | - |
| 1778010080 | 22.78° C | 48% | 1009.9 hPa | 0 mm | - | 118 W/m² | - |
| 1778009780 | 22.78° C | 47% | 1009.9 hPa | 0 mm | - | 149 W/m² | - |
| 1778007381 | 22.78° C | 48% | 1009.5 hPa | 0 mm | - | 477 W/m² | - |
| 1778007080 | 22.78° C | 49% | 1009.8 hPa | 0 mm | - | 836 W/m² | - |
| 1778006780 | 22.78° C | 48% | 1009.8 hPa | 0 mm | - | 225 W/m² | - |
| 1778006181 | 22.78° C | 50% | 1009.9 hPa | 0 mm | - | 294 W/m² | - |
| 1778005278 | 22.22° C | 53% | 1010.1 hPa | 0 mm | - | 397 W/m² | - |
| 1778004980 | 22.22° C | 53% | 1010 hPa | 0 mm | - | 293 W/m² | - |
| 1778004080 | 22.78° C | 54% | 1010.3 hPa | 0 mm | - | 941 W/m² | - |
| 1778002880 | 22.78° C | 54% | 1010.4 hPa | 0 mm | - | 968 W/m² | - |
| 1778001980 | 22.78° C | 54% | 1010.5 hPa | 0 mm | - | 902 W/m² | - |
| 1778001380 | 23.33° C | 54% | 1010.6 hPa | 0 mm | - | 718 W/m² | - |
| 1778000180 | 21.67° C | 56% | 1010.6 hPa | 0 mm | - | 391 W/m² | - |
| 1777998980 | 21.67° C | 58% | 1010.7 hPa | 0 mm | - | 1046 W/m² | - |
| 1777998678 | 21.11° C | 60% | 1010.9 hPa | 0 mm | - | 790 W/m² | - |
| 1777998080 | 21.11° C | 62% | 1010.9 hPa | 0 mm | - | 685 W/m² | - |
| 1777997480 | 20.56° C | 62% | 1011.2 hPa | 0 mm | - | 186 W/m² | - |
| 1777996880 | 21.11° C | 62% | 1011.3 hPa | 0 mm | - | 251 W/m² | - |
| 1777995678 | 21.11° C | 63% | 1011.4 hPa | 0 mm | - | 534 W/m² | - |
| 1777995380 | 21.11° C | 63% | 1011.6 hPa | 0 mm | - | 997 W/m² | - |
| 1777994782 | 21.11° C | 62% | 1011.4 hPa | 0 mm | - | 1023 W/m² | - |
| 1777994178 | 20.56° C | 63% | 1011.3 hPa | 0 mm | - | 468 W/m² | - |
| 1777993280 | 20° C | 67% | 1011.4 hPa | 0 mm | - | 702 W/m² | - |
* Rain latest hour (hover to see other rain measurements)
** Current wind speed in m/s (hover to see current wind gust speed)